Regional Weather Roundup
Issued by NWS

Home | Current Version | Previous Version | Text Only | Print | Product List | Glossary On
Versions: 1 2 3 4 5 6 7 8 9 10 11 12 13 14 15 16 17 18 19 20 21 22 23 24 25 26 27 28 29 30 31 32 33 34 35 36 37 38 39 40 41 42 43 44 45 46 47 48 49 50
000
ASUS44 KLUB 241110
RWRTX
WEST TEXAS WEATHER ROUNDUP
NATIONAL WEATHER SERVICE LUBBOCK TX
600 AM CDT SUN MAY 24 2015

NOTE: "FAIR" INDICATES FEW OR NO CLOUDS BELOW 12,000 FEET WITH NO
SIGNIFICANT WEATHER AND/OR OBSTRUCTIONS TO VISIBILITY.

TXZ004-006>008-010-012-014-016-OKZ002-241200-
TEXAS PANHANDLE/OKLAHOMA PANHANDLE

CITY           SKY/WX    TMP DP  RH WIND       PRES   REMARKS
AMARILLO       MOCLDY    54  53  97 SE13      29.87F
BORGER         MOCLDY    57  54  89 S14G21    29.87F
CANADIAN       CLOUDY    61  59  94 S10       29.87F
DALHART        CLOUDY    56  53  90 S8        29.90F
DUMAS          CLOUDY    55  53  95 S7        29.89F
GUYMON         CLOUDY    58  56  93 S6        29.87F
HEREFORD       PTCLDY    55  53  92 MISG      29.88F
PAMPA          CLOUDY    56  55  94 S14       29.89F
PERRYTON       CLOUDY    59  56  91 S7        29.88R
$$

TXZ026-029-035-045-048-241200-
SOUTHERN PANHANDLE/SOUTH PLAINS/ROLLING PLAINS

CITY           SKY/WX    TMP DP  RH WIND       PRES   REMARKS
CHILDRESS      FOG       60  60 100 E8        29.88F VSB 1/4
SEMINOLE       CLOUDY    55  55  97 CALM      29.88F
LUBBOCK        CLOUDY    60  58  92 S9        29.86F
PLAINVIEW      CLOUDY    58  57  97 S8        29.86F
SNYDER         CLOUDY    60  59  98 S8        29.87S
$$

TXZ052-054-060>062-072-078-127-140-154-169-241200-
PERMIAN BASIN/CONCHO VALLEY/BIG COUNTRY/EDWARDS PLATEAU

CITY           SKY/WX    TMP DP  RH WIND       PRES   REMARKS
ABILENE        CLOUDY    65  62  90 CALM      29.86S
BIG SPRING     CLOUDY    64  60  89 CALM      29.87F
BRADY          PTCLDY    61  61 100 SW8       29.84R
BROWNWOOD      CLOUDY    64  63  94 W8        29.84R
JUNCTION       CLOUDY    63  59  87 SE5       29.86F
MIDLAND        CLOUDY    63  59  87 S13       29.87R
ODESSA           N/A    N/A N/A N/A MISG      29.86F
SAN ANGELO     TSTM      64  61  90 S6        29.86S
SONORA         CLOUDY    63  61  94 S3        29.91S
SWEETWATER     CLOUDY    63  63 100 S9        29.88F
WINK           CLEAR     61  52  72 SW13      29.87S
$$

TXZ055-058-074-075-080-082-241200-
FAR WEST/SOUTHWEST MOUNTAINS/TRANS PECOS

CITY           SKY/WX    TMP DP  RH WIND       PRES   REMARKS
ALPINE         CLEAR     49  46  87 SW6       30.05S
EL PASO        CLEAR     65  24  21 W13       29.96S
FORT STOCKTON  CLEAR     56  51  84 SW14      29.90R
GUADALUPE PASS CLEAR     53  20  27 W15       30.01R
MARFA          CLEAR     45  43  93 CALM      30.04S
PECOS          CLEAR     54  53  95 CALM      29.90S
PRESIDIO       FAIR      59  49  69 CALM      29.95R
$$

TXZ014-016-019-021>030-083-241200
TEXAS TECH WEST TEXAS MESONET/TEXAS PANHANDLE/NORTHERN SOUTH PLAINS

CITY           SKY/WX    TMP DP  RH WIND       PRES   REMARKS
ABERNATHY 5ENE   N/A     58  57  96 S8        29.88F
AMARILLO 9NNE    N/A     55  54  95 SE8       29.87F
AMARILLO 7SSE    N/A     54  53  99 S9        29.88F
AMHERST 1NE      N/A     54  53  97 S6        29.88F
BOOTLEG 11WNW    N/A     47  46  96 S8        29.91F
CANADIAN 6E      N/A     59  58  98 SE12      29.86F
CAPROCK CYN SP   N/A     56  56 100 CALM      29.88F
CHILDRESS 2NNE   N/A     60  59  96 E8        29.87F
CLARENDON 2WSW   N/A     57  56  94 SE5       29.88F
CLAUDE 12SW      N/A     56  55  98 S8        29.89F
DIMMITT 2NE      N/A     52  50  93 S12       29.87F
FLOYDADA 2NNE    N/A     56  55  98 SE3       29.87F
FRIONA 2NE       N/A     51  49  93 S8        29.89F
GOODLETT 3W      N/A     62  60  93 E6        29.86F
HART 3N          N/A     51  51  98 S6        29.88F
HEREFORD 2NW     N/A     53  49  87 S8        29.87F
MCLEAN 1E        N/A     57  56  98 SE10      29.87F
MEMPHIS 1NE      N/A     60  59  98 E6        29.87F
MULESHOE 2SSW    N/A     47  46  95 SE5       29.88F
OLTON 6S         N/A     56  55  94 S14       29.87F
PALO DURO SP     N/A     55  55  97 S10       29.89F
PAMPA 2E         N/A     56  56  98 S15       29.88F
PLAINVIEW 1S     N/A     58  57  97 S9        29.87F
SILVERTON 7ESE   N/A     56  55  97 SE5       29.88F
TULIA 2ENE       N/A     56  56  98 S12       29.88F
UMBARGER 3NNE    N/A     53  52  96 S3        29.87F
$$

TXZ033>036-039>041-045>048-241200
TEXAS TECH WEST TEXAS MESONET/SOUTH PLAINS

CITY           SKY/WX    TMP DP  RH WIND       PRES   REMARKS
AIKEN 3WSW       N/A     58  58  99 S6        29.88F
ANDREWS 2NE      N/A     64  50  60 W10       29.85F
ANTON 6SSW       N/A     58  56  95 S10       29.87F
BROWNFIELD 2S    N/A     58  57  97 S10       29.88S
DENVR CTY 7WNW   N/A     53  52  97 SW7       29.87F
GAIL 2ESE        N/A     58  57  96 SE3       29.85F
LAMESA 2SE       N/A     60  59  97 SW5       29.86R
LEVELLAND 4S     N/A     57  55  94 S9        29.87F
LUBBOCK 3WNW     N/A     60  58  91 S10       29.87F
MORTON 1ENE      N/A     52  51  97 S7        29.87F
ODONNELL 1N      N/A     59  57  93 S5        29.87S
PLAINS 3N        N/A     52  51  96 S7        29.87F
RALLS 1SE        N/A    N/A N/A N/A S9        29.88F
REESE CENTER     N/A     58  57  96 S13       29.87F
SEAGRAVES 1SW    N/A     56  56  97 S5        29.86F
SEMINOLE 2NNE    N/A     56  54  94 W2        29.87F
SLATON 2NE       N/A     56  56  98 E1        29.88F
SNYDER 3E        N/A     60  59  98 S6        29.86S
SUNDOWN 8SW      N/A     53  52  95 S7        29.86F
TAHOKA 3NNE      N/A     58  57  97 S3        29.87F
WOLFFORTH 6SSW   N/A     59  59  98 S9        29.87F
$$

TXZ031-032-036>038-042>044-241200-
TEXAS TECH WEST TEXAS MESONET/ROLLING PLAINS

CITY           SKY/WX    TMP DP  RH WIND       PRES   REMARKS
ASPERMONT 3NE    N/A     63  61  96 NE2       29.84F
FLUVANNA 3WNW    N/A     60  58  93 SE10      29.86F
GRAHAM 5SSW      N/A     58  57  96 SE3       29.86F
GUTHRIE 10WSW    N/A     60  59  96 NE6       29.85F
HASKELL 1NW      N/A     64  62  94 N6        29.83S
JAYTON 1SSE      N/A     61  60  96 NE3       29.85F
KNOX CITY 3NW    N/A     63  60  89 N7        29.85S
LK A HENRY 1NW   N/A     60  59  97 NE1       29.86S
NORTHFIELD 1S    N/A     58  58  98 E6        29.86F
ODELL 4ENE       N/A     62  61  99 E8        29.86F
PADUCAH 10SW     N/A     60  59  96 E6        29.86F
POST 1NE         N/A     59  57  95 NE2       29.87S
RRING SPRGS 3N   N/A     55  54  98 N2        29.87F
SEYMOUR 3NW      N/A     63  61  93 NE8       29.84F
SPUR 1W          N/A     57  56  95 NE1       29.85F
WEINERT 2NNE     N/A     64  62  94 NE3       29.85S
WHITE RVR 6NE    N/A     57  56  97 CALM      29.87S
$$

TXZ052-054-060>062-072-078-127-140-154-169-241200-
TEXAS TECH WEST TEXAS MESONET/PERMIAN BASIN/
CONCHO VALLEY/BIG COUNTRY/EDWARDS PLATEAU

CITY           SKY/WX    TMP DP  RH WIND       PRES   REMARKS
COYANOSA 2N      N/A     59  54  83 SW6       29.88F
JUNCTION 1SSW    N/A     60  59  96 S2        29.87S
MERTZON 3NNE     N/A     63  62  96 W2        29.87F
SAN ANGELO 7NW   N/A     63  60  91 CALM      29.86F
STRLNG CT 4WSW   N/A     63  59  87 SE6       29.86F
ST LAWRNCE 5SW   N/A     65  52  61 NW6       29.86F
SWEETWATR 11SW   N/A     61  60  94 S10       29.86F
WALL 1E          N/A     63  58  84 SW7       29.88S
$$

TXZ055-058-074-075-080-082-241200-
TEXAS TECH WEST TEXAS MESONET/FAR WEST/SOUTHWEST MOUNTAINS/TRANS PECOS

CITY           SKY/WX    TMP DP  RH WIND       PRES   REMARKS
PRSMN GAP BBNP   N/A     61  56  83 W2        29.93R
$$



USA.gov is the U.S. government's official web portal to all federal, state and local government web resources and services.